Location: Newark
(35.8967°N, 14.4625°E)
Time: 04:27:29
(UTC+00:00)

N. Korean satellite - Visible Passes

Search period start: 15 November 2019 00:00
Search period end: 25 November 2019 00:00
Orbit: 456 x 506 km, 97.2° (Epoch: 14 November)

Date Brightness Start Highest point End Pass type
(mag) Time Alt. Az. Time Alt. Az. Time Alt. Az.
15 Nov 7.0 04:45:50 10° NNE 04:49:32 69° E 04:53:11 10° S visible
15 Nov 9.3 16:52:09 10° SSW 16:55:06 24° W 16:58:07 10° NW visible
16 Nov 8.8 04:20:50 10° NE 04:24:07 30° E 04:27:22 10° SSE visible
16 Nov 7.5 16:26:09 10° S 16:29:39 55° W 16:33:15 10° NNW visible
17 Nov 10.0 03:56:34 10° ENE 03:58:37 14° E 04:00:37 10° SE visible
18 Nov 6.6 05:03:05 10° N 05:06:45 65° WNW 05:10:22 10° SSW visible
18 Nov 10.0 17:10:22 10° SW 17:12:26 15° W 17:14:32 10° WNW visible
19 Nov 7.5 04:37:46 10° NNE 04:41:23 52° E 04:44:56 10° S visible
19 Nov 8.8 16:43:40 10° SSW 16:46:54 31° W 16:50:12 10° NNW visible
20 Nov 9.2 04:12:55 10° NE 04:15:56 23° E 04:18:53 10° SSE visible
20 Nov 6.9 16:17:52 10° S 16:21:28 73° W 16:25:09 10° NNW visible
21 Nov 10.2 03:49:18 10° ENE 03:50:22 11° E 03:51:25 10° ESE visible
22 Nov 6.5 04:54:53 10° N 04:58:35 85° W 05:02:12 10° SSW visible
22 Nov 9.7 17:01:34 10° SW 17:04:11 19° W 17:06:50 10° NW visible
23 Nov 8.1 04:29:41 10° NNE 04:33:10 40° E 04:36:34 10° S visible
23 Nov 8.2 16:35:14 10° S 16:38:40 40° W 16:42:11 10° NNW visible
24 Nov 9.6 04:05:04 10° NE 04:07:40 18° E 04:10:14 10° SE visible
